COSMOS 2251 DEB, 37996

Orbit data source: Space-Track

COSMOS 2251 DEB, 37996 is space debris in LEO originally from a launch on Wed, 16 Jun 1993 UTC launched from the Plesetsk Missile And Space Complex (PKMTR). The debris from Iridium 33, an American commercial communications satellite, has been tracked extensively since its accidental collision with the defunct Russian satellite Cosmos 2251 in 2009. This event, occurring at high speed in low Earth orbit (LEO), generated thousands of pieces of space debris, significantly increasing the risk of further collisions. The Iridium 33 debris cloud has impacted space traffic management and orbital debris mitigation strategies, making it a subject of ongoing study in space situational awareness.

Loading next visibility...
Identifier
37996, 1993-036BQX
Orbit
LEO
Country
Flag of CISCIS
Related business
Manufacturer
Unknown
Mission
Spacecraft
Bus & Motor
Unknown
Mass
Unknown
Launch date (UTC)
1993-06-16 (33 years ago)
Launch vehicle
Unknown
Launch site
Plesetsk Missile And Space Complex (PKMTR)
Object type
Payload
Rocket body
Debris
Shape & HBR
Unknown shape, 1.1 m
Radar Cross Section
Medium (>0.1 m² and <1 m²)

Expand to show TLE details & history
Last TLE update: 1 month ago

TLE from 1 month ago
0 COSMOS 2251 DEB
1 37996U 93036BQX 26138.40203346  .00002310  00000-0  98947-3 0  9993
2 37996  74.0574 286.9065 0221066   3.0171 357.2241 14.13141627583468
Epoch: 2026-05-18T09:38Z
TLE epoch observation values (Epoch: 2026-05-18T09:38:55.690Z)
Latitude
-0.00011°
Longitude
-93.91638°
Altitude
691.637 km
Speed
7.593 km/s
True Right ascension
19h 07m 37s
True Declination
0° 00' 00"
Sunlit
Object was in full shadow at epoch
Visualization orbit readout
Latitude
Unknown
Longitude
Unknown
Altitude
Unknown
Speed
Unknown
Apparent Right ascension
Unknown
Apparent Declination
Unknown
Sunlit
N/A
Visualization observer readout
Local Sidereal Time
21:43:27
Azimuth
Unknown
Elevation
Unknown
Doppler factor
Unknown
Orbital elements
Apogee altitude
1,005.994 km
Perigee altitude
686.579 km
Semi-major axis
7,224.424 km
Eccentricity
0.02211
Inclination
74.0574°
RAAN
286.9065°
Arg. of periapsis
3.0171°
True anomaly
357.09794°
Mean anomaly
357.2241°
Eccentric anomaly
357.16137°
Mean motion
3.53458 °/min
Orbital period
101.85 mins
BSTAR
0.00098947
Loading maneuver chart data...
Computing Atmospheric mass density...

Documentation

Showing up to 5 results
|